Location: Zilina
(49.2167°N, 18.7333°E)
Time: 11:03:39
(UTC+02:00)

Daily predictions for brighter satellites

Satellite Brightness Start Highest point End
(mag) Time Altitude Azimuth Time Altitude Azimuth Time Altitude Azimuth
Cosmos 1486 Rocket 4.0 21:07:03 10° SSW 21:12:22 76° ESE 21:17:43 10° NNE
ERS-1 Rocket 3.5 21:08:20 10° SE 21:13:08 46° ENE 21:17:56 10° N
Meteor 2-3 Rocket 4.3 21:07:48 10° SSE 21:13:11 41° E 21:18:34 10° NNE
Iridium 46 3.9 21:14:31 10° N 21:16:40 40° E 21:18:51 10° SSE
Cosmos 2219 4.3 21:15:06 10° NW 21:20:22 42° WSW 21:25:36 10° S
Abrixas rocket 2.3 21:17:57 10° WSW 21:21:03 51° SSE 21:24:09 10° E
Helios 1B rocket 4.5 21:21:45 10° ENE 21:23:15 12° E 21:24:44 10° ESE
Cosmos 1697 Rocket 3.5 21:23:54 10° SSE 21:28:44 30° ESE 21:33:34 10° NE
Cosmos 540 Rocket 4.2 21:27:27 10° NNW 21:32:23 50° WSW 21:37:17 10° S
Cosmos 1805 Rocket 4.1 21:29:46 10° SSW 21:34:12 66° WNW 21:38:40 10° N
Cosmos 2369 4.0 21:29:22 10° S 21:34:45 47° ESE 21:40:11 10° NE
Cosmos 1408 3.0 21:31:27 10° SSE 21:34:49 41° E 21:38:14 10° NNE
Cosmos 1354 Rocket 4.0 21:31:11 10° S 21:36:21 64° ESE 21:41:36 10° NNE
BREEZE-M DEB (TANK) 3.6 21:29:06 10° WSW 21:37:14 71° SSE 21:40:53 10° E
Cosmos 1633 Rocket 3.0 21:33:13 10° S 21:37:35 71° E 21:41:58 10° NNE
Cosmos 2366 rocket 4.1 21:31:46 10° N 21:37:58 70° ENE 21:44:13 10° SSE
Landsat 7 4.4 21:36:09 10° SE 21:40:35 43° ENE 21:45:05 10° N
H-2A R/B 2.4 21:38:38 10° S 21:44:03 72° WSW 21:49:24 10° NNW
Cosmos 1503 Rocket 4.0 21:40:20 10° SSW 21:45:32 79° ESE 21:50:49 10° NNE
SPOT 1/Viking Rocket 3.8 21:42:14 10° SSE 21:47:14 60° ENE 21:52:23 10° N
IGS 5A 4.4 21:43:51 12° SE 21:47:16 35° ENE 21:51:05 10° N
CARTOSAT-1 4.5 21:44:22 12° SE 21:47:57 35° ENE 21:51:54 10° N
Cosmos 2278 3.9 21:43:29 10° S 21:48:58 53° ESE 21:54:30 10° NE
Helios 1A 3.3 21:49:10 13° SE 21:52:51 53° ENE 21:57:00 10° N
Cosmos 1862 Rocket 3.5 21:48:46 10° N 21:53:12 75° E 21:57:17 12° SSE
Cosmos 2218 Rocket 4.1 21:47:16 10° N 21:53:38 86° W 22:00:02 10° S
SPOT 5 3.1 21:48:58 11° SSE 21:53:59 69° ENE 21:59:02 10° N
USA 215 4.2 21:48:38 10° ENE 21:54:50 47° N 22:01:03 10° WNW
Cosmos 1606 2.7 21:55:18 10° N 21:59:14 86° E 22:02:43 13° S
Cosmos 2181 Rocket 4.3 21:53:17 10° SSW 21:59:24 71° W 22:05:33 10° N
Cosmos 1703 Rocket 4.4 21:55:53 10° N 21:59:54 35° ENE 22:02:53 16° SE
Terra 2.4 21:56:48 14° SE 22:00:33 43° ENE 22:05:05 10° N
Cosmos 1825 2.1 21:57:18 10° S 22:01:05 74° E 22:04:54 10° NNE
ARGOS 4.1 21:56:10 10° S 22:01:18 44° W 22:06:28 10° NNW
Sich 1 4.1 21:59:31 10° SSW 22:03:48 48° WNW 22:08:06 10° N
USA 245 3.8 21:59:36 10° S 22:04:23 66° WSW 22:08:11 10° NNW
Meteor 1-29 4.5 22:04:31 10° NE 22:07:03 19° E 22:08:05 17° ESE
ATLAS 2AS CENTAUR R/B 3.3 21:59:03 10° NW 22:07:05 65° NE 22:13:44 13° ESE
ISS -3.9 22:03:57 10° WSW 22:07:13 69° SSE 22:10:29 10° ENE
Cosmos 773 Rocket 4.3 22:03:47 10° NNW 22:09:03 58° ENE 22:13:02 17° SE
Cosmos 2082 4.3 22:04:36 10° NW 22:10:02 50° WSW 22:15:11 11° S
Cosmos 1980 Rocket 2.8 22:05:03 10° S 22:10:03 36° ESE 22:15:12 10° NE
Cosmos 1656 3.7 22:06:36 10° SSW 22:12:14 90° ESE 22:17:49 10° NNE
NOSS 2-1 (C) 3.4 22:10:08 10° SSW 22:13:37 47° SE 22:17:32 10° NE
Nadezhda 3 Rocket 4.3 22:09:04 13° SSE 22:14:21 49° E 22:20:16 10° NNE
NOSS 2-1 (D) 3.3 22:11:31 10° SSW 22:15:00 50° SE 22:18:58 10° NE
Meteor 2-15 4.4 22:09:18 10° S 22:15:22 79° E 22:21:29 10° NNE
Meteor 1-10 Rocket 4.3 22:10:42 10° N 22:16:34 77° ENE 22:21:23 16° SSE
Cosmos 1470 Rocket 3.5 22:12:29 10° S 22:16:51 87° WNW 22:21:12 10° N
DMSP B5D2-2 4.0 22:12:13 10° NNE 22:17:28 87° ESE 22:22:41 10° SSW
CZ-2C R/B 3.2 22:15:40 17° SSE 22:19:36 62° ENE 22:24:31 10° N
Cosmos 1437 Rocket 3.2 22:18:20 20° SSE 22:20:42 43° E 22:24:24 10° NNE
Meteor 2-15 Rocket 4.4 22:16:23 10° S 22:22:26 75° E 22:28:32 10° NNE
Cosmos 2242 Rocket 4.2 22:19:08 10° NNW 22:23:26 53° W 22:27:28 12° S
Cosmos 1184 Rocket 2.8 22:21:40 10° N 22:25:02 75° ENE 22:26:50 25° SSE
Lacrosse 5 rocket 3.4 22:21:43 10° WNW 22:25:30 31° N 22:29:30 10° NE
Cosmos 1821 Rocket 4.2 22:21:44 10° N 22:28:06 63° ENE 22:32:41 19° SSE
Cosmos 2263 Rocket 3.2 22:23:32 10° NNW 22:28:43 37° NE 22:32:54 15° ESE
Cosmos 1777 Rocket 4.5 22:25:16 17° SSE 22:28:48 41° ESE 22:33:41 10° NE
ERBS 3.2 22:25:41 10° WSW 22:29:01 52° NNW 22:32:20 10° NE
Cosmos 968 Rocket 3.6 22:25:09 10° SSW 22:30:24 78° WNW 22:35:38 10° NNE
SeaSat 1 3.4 22:27:54 10° NNE 22:32:41 51° NW 22:37:27 10° SW
Cosmos 1782 3.3 22:29:00 10° NNW 22:32:55 55° W 22:35:56 16° S
BREEZE M DEB (TANK) 4.2 22:14:34 10° WSW 22:34:35 90° W 22:39:14 10° E
Cosmos 1933 Rocket 3.9 22:31:23 10° SSW 22:35:49 69° WNW 22:40:17 10° N
Cosmos 1680 Rocket 4.3 22:34:03 10° NNW 22:39:07 41° ENE 22:42:32 19° ESE
Cosmos 2297 Rocket 3.9 22:34:41 10° NW 22:39:13 25° WSW 22:43:44 10° SSW
Meteor 1-4 Rocket 2.9 22:37:36 27° SSE 22:39:23 51° E 22:43:02 10° NNE
Cosmos 1934 Rocket 4.2 22:34:47 10° N 22:40:49 55° ENE 22:44:41 22° SE
NOSS 3-4 (A) 4.4 22:38:31 10° NW 22:45:09 50° NE 22:51:54 12° ESE
NOSS 3-4 (C) 4.4 22:38:37 10° NW 22:45:15 50° NE 22:52:02 12° ESE
CZ-4C R/B 4.2 22:45:40 10° E 22:45:40 10° E 22:46:06 10° E
NOSS 2-1 (E) 3.2 22:43:54 10° SW 22:47:33 88° SE 22:51:53 10° NE
Gbstr 26 Del rocket 3.2 22:45:01 10° WNW 22:49:07 59° N 22:52:50 10° E
SL-16 R/B 3.3 22:47:37 22° SE 22:49:25 26° ESE 22:54:01 10° NE
ATLAS 5 CENTAUR R/B 2.6 22:45:19 10° NW 22:51:00 64° NE 22:55:39 19° ESE
Cosmos 1461 3.1 22:47:38 10° NW 22:52:21 88° WSW 22:54:40 29° SE
Cosmos 2227 Rocket 4.3 22:49:33 10° WNW 22:53:19 18° W 22:57:03 10° SW
CZ-2C R/B 2.7 22:49:47 10° NNE 22:54:54 56° E 22:57:47 25° S
NOSS 3-3 (A) 4.0 22:49:51 10° SSW 22:55:47 59° ESE 23:02:22 10° NE
NOSS 3-3 (C) 4.0 22:49:57 10° SSW 22:55:53 59° ESE 23:02:28 10° NE
Abrixas rocket 1.9 22:54:08 10° W 22:57:18 78° S 22:58:35 33° E
Cosmos 1538 Rocket 4.4 22:52:13 10° NNW 22:57:28 59° WSW 23:00:38 23° S
ADEOS Rocket 4.4 22:52:25 10° NNE 22:58:51 32° E 23:02:39 21° SE
Helios 1B rocket 2.5 22:54:57 10° NNE 22:59:05 78° WNW 23:01:53 20° SSW
COBE Rocket 4.1 22:55:43 10° NNE 23:00:49 59° E 23:03:27 27° S
Cosmos 2084 Rocket 3.8 22:59:29 28° S 23:01:18 43° SE 23:05:24 10° NE
Cosmos 2112 Rocket 4.5 22:57:33 10° NNW 23:02:50 54° ENE 23:05:47 25° SE
Cosmos 923 Rocket 4.0 22:57:32 10° NNW 23:02:52 77° ENE 23:05:43 28° SSE
Okean 1-7 3.1 23:00:09 10° NNW 23:04:27 71° W 23:06:33 29° S
Cosmos 1812 3.1 23:05:40 10° N 23:09:28 52° ENE 23:10:39 36° SE
Cosmos 1633 3.5 23:09:46 31° ESE 23:10:17 32° E 23:13:35 10° NNE
Cosmos 1697 Rocket 3.5 23:06:54 10° SW 23:12:26 53° NW 23:17:59 10° NNE
Cosmos 2227 4.5 23:10:57 10° NW 23:16:38 61° WSW 23:19:39 28° S
Cosmos 1869 Rocket 3.7 23:16:02 25° SSW 23:18:35 75° W 23:23:06 10° N
Nimbus 7 Rocket 4.4 23:12:38 10° NNE 23:18:46 89° WNW 23:23:16 19° SSW
BREEZE-M TANK 3.4 23:10:21 10° WSW 23:19:03 42° S 23:20:32 29° ESE
Mayak 0.1 23:15:53 10° NE 23:19:14 23° E 23:19:45 22° ESE
Cosmos 2360 4.4 23:13:34 10° SW 23:19:16 76° WNW 23:25:02 10° NNE
Cosmos 1844 Rocket 4.3 23:22:01 10° NNW 23:26:46 27° NE 23:31:19 11° ESE
Cosmos 1605 Rocket 4.0 23:20:47 10° N 23:27:05 81° E 23:30:30 30° SSE
CZ-4 R/B 4.4 23:25:44 10° NNE 23:30:08 40° E 23:31:19 33° SE
SAR-Lupe-4 3.6 23:30:17 50° SE 23:31:03 70° ENE 23:34:39 10° N
Cosmos 1733 Rocket 3.4 23:33:13 39° SE 23:34:25 51° E 23:38:45 10° NNE
Okean 1 4.2 23:32:52 10° N 23:36:39 38° ENE 23:37:41 32° ESE
Aureole 2 Rocket 2.4 23:37:56 48° NE 23:37:56 48° NE 23:40:07 10° NNE
USA 215 3.4 23:31:16 12° ESE 23:37:26 75° NNE 23:44:00 10° NW
Terra 3.4 23:35:41 16° SW 23:38:28 26° W 23:42:30 10° NW
Cosmos 389 Rocket 2.8 23:39:08 41° SW 23:40:09 63° WNW 23:43:41 10° N
Cosmos 2322 Rocket 2.3 23:38:34 33° S 23:40:53 58° ESE 23:46:24 10° NE
GP-B 3.8 23:38:22 10° NNE 23:42:35 40° E 23:43:44 34° ESE
ISS -3.1 23:40:34 10° W 23:43:48 54° N 23:47:03 10° ENE
Okean 3 3.5 23:42:55 10° N 23:47:13 70° ENE 23:48:24 46° SE
Cosmos 1674 Rocket 3.6 23:44:03 10° N 23:48:27 72° E 23:49:42 45° SSE
SAR-Lupe-1 3.9 23:48:49 62° S 23:49:23 85° W 23:52:59 10° NNW
Meteor 1-20 Rocket 4.4 23:48:08 34° SSE 23:50:33 60° E 23:56:18 10° NNE
Cosmos 2360 Rocket 3.0 23:49:48 29° SE 23:51:05 33° ESE 23:56:04 10° NE
CZ-2C R/B 2.7 23:51:33 43° SSE 23:52:40 72° E 23:56:35 10° N
H-2A R/B 3.1 23:52:08 27° ESE 23:53:43 37° ENE 23:57:47 10° N
Cosmos 1980 Rocket 3.2 23:48:33 10° SW 23:53:58 45° NW 23:59:26 10° NNE
Meteor 1-25 Rocket 4.3 23:51:41 36° SSE 23:54:00 67° E 23:59:42 10° NNE
